Weather History for KNRS - November, 2012

Change the Weather History Date:

Thursday, November 1, 2012

  Actual Average Record
Temperature  
Mean Temperature 66 °F -  
Max Temperature 70 °F 65 °F 80 °F (2013)
Min Temperature 62 °F 54 °F 48 °F (1996)
Cooling Degree Days 1    
Growing Degree Days 16 (Base 50)    
Moisture  
Dew Point 54 °F    
Average Humidity 68    
Maximum Humidity 75    
Minimum Humidity 55    
Precipitation  
Precipitation 0.00 in - - ()
Sea Level Pressure  
Sea Level Pressure 30.00 in    
Wind  
Wind Speed 4 mph (West)    
Max Wind Speed 10 mph    
Max Gust Speed -    
Visibility 10 miles    
Events      
Averages and records for this station are not official NWS values.
T = Trace of Precipitation, MM = Missing Value Source: NWS Daily Summary

Daily Weather History Graph

Daily Weather History Graph

Search for Another Location

Airport or City:

Trip Planner

Search our weather history database for the weather conditions in past years. The results will help you decide how hot, cold, wet, or windy it might be!

Date:

Astronomy

Nov. 01, 2012 Rise Set
Actual Time 7:06 AM PDT 5:57 PM PDT
Civil Twilight 6:40 AM PDT 6:22 PM PDT
Nautical Twilight 6:11 AM PDT 6:51 PM PDT
Astronomical Twilight 5:43 AM PDT 7:20 PM PDT
Moon 8:04 PM PDT (11/1) 9:35 AM PDT (11/1)
Length of Visible Light 11h 41m
Length of Day
10h 50m
Waning Gibbous, 92% of the Moon is Illuminated
Nov 1
Waning Gibbous
Nov 6
Last Quarter
Nov 13
New
Nov 20
First Quarter
Nov 28
Full

Hourly Weather History & Observations

Time (PDT) Temp. Dew Point Humidity Pressure Visibility Wind Dir Wind Speed Gust Speed Precip Events Conditions
12:56 AM 66.9 °F 55.9 °F 68% 30.01 in 10.0 mi West 4.6 mph - N/A   Overcast
1:56 AM 66.9 °F 55.9 °F 68% 30.01 in 10.0 mi WNW 4.6 mph - N/A   Overcast
2:56 AM 66.9 °F 55.9 °F 68% 30.00 in 10.0 mi WNW 4.6 mph - N/A   Overcast
3:56 AM 66.9 °F 55.0 °F 66% 29.99 in 10.0 mi NW 3.5 mph - N/A   Overcast
4:56 AM 66.9 °F 55.0 °F 66% 29.99 in 10.0 mi Calm Calm - N/A   Overcast
5:56 AM 66.0 °F 55.0 °F 68% 30.00 in 9.0 mi Calm Calm - N/A   Overcast
6:56 AM 66.0 °F 54.0 °F 65% 30.01 in 10.0 mi Calm Calm - N/A   Overcast
7:56 AM 66.9 °F 54.0 °F 63% 30.02 in 7.0 mi Calm Calm - N/A   Overcast
8:56 AM 66.0 °F 54.0 °F 65% 30.02 in 7.0 mi Calm Calm - N/A   Overcast
9:56 AM 68.0 °F 54.0 °F 61% 30.02 in 7.0 mi Calm Calm - N/A   Mostly Cloudy
10:56 AM 70.0 °F 53.1 °F 55% 30.04 in 7.0 mi West 9.2 mph - N/A   Mostly Cloudy
11:56 AM 66.0 °F 53.1 °F 63% 30.03 in 10.0 mi West 5.8 mph - N/A   Scattered Clouds
12:56 PM 66.9 °F 53.1 °F 61% 30.01 in 10.0 mi West 9.2 mph - N/A   Scattered Clouds
1:56 PM 64.9 °F 53.1 °F 65% 29.98 in 10.0 mi Variable 5.8 mph - N/A   Scattered Clouds
2:56 PM 66.9 °F 54.0 °F 63% 29.97 in 10.0 mi West 10.4 mph - N/A   Mostly Cloudy
3:56 PM 64.9 °F 54.0 °F 68% 29.97 in 10.0 mi West 10.4 mph - N/A   Mostly Cloudy
4:56 PM 64.0 °F 54.0 °F 70% 29.98 in 10.0 mi West 10.4 mph - N/A   Mostly Cloudy
5:56 PM 63.0 °F 54.0 °F 72% 29.98 in 10.0 mi West 6.9 mph - N/A   Mostly Cloudy
6:56 PM 63.0 °F 54.0 °F 72% 29.99 in 10.0 mi NW 3.5 mph - N/A   Mostly Cloudy
7:34 PM 62.6 °F 53.6 °F 72% 29.99 in 10.0 mi Calm Calm - N/A   Mostly Cloudy
7:56 PM 63.0 °F 55.0 °F 75% 30.00 in 10.0 mi West 6.9 mph - N/A   Mostly Cloudy
8:56 PM 63.0 °F 55.0 °F 75% 30.00 in 10.0 mi West 5.8 mph - N/A   Mostly Cloudy
9:56 PM 63.0 °F 54.0 °F 72% 30.00 in 10.0 mi SW 3.5 mph - N/A   Overcast
10:56 PM 63.0 °F 54.0 °F 72% 30.01 in 10.0 mi Calm Calm - N/A   Overcast
11:56 PM 62.1 °F 54.0 °F 75% 30.01 in 10.0 mi Calm Calm - N/A   Overcast